RH
100 100 100 100 93 78 69 69 71 74 75 90 99 86 80 78 80 78 68 45 33 33 30 28 36 38 38 33 23 14 15 21 34 58 59 95 73 37 34 38 28 23 20 22 34
58 62 71 93 100 95 85 79 83 78 73 97 100 84 100 100 100 84 57 51 37 31 33 37 35 36 34 40 28 19 12 26 42 55 63 72 62 44 37 38 31 19 26 25 28
56 65 83 100 99 73 86 100 98 88 79 98 100 100 100 100 97 73 64 42 41 37 35 35 39 38 34 35 34 24 15 22 37 45 62 66 56 50 37 43 38 28 24 27 29
65 87 100 100 85 80 96 100 94 99 98 100 100 95 100 100 92 72 52 49 36 27 32 35 29 35 32 33 38 24 25 15 33 43 52 54 68 59 49 58 45 26 25 30 26
64 84 97 100 95 98 93 100 99 100 100 100 100 91 100 93 80 61 40 36 32 33 33 35 27 29 31 33 34 31 35 21 23 35 48 48 65 68 50 62 49 34 25 33 33
83 82 93 100 96 100 100 99 98 100 100 100 95 98 99 100 75 45 41 28 28 35 35 28 23 23 27 30 31 44 39 29 20 28 46 47 53 66 62 75 56 51 23 36 39
84 78 86 89 100 100 96 98 100 100 100 100 100 99 100 88 48 36 31 32 30 22 28 22 20 16 22 30 34 41 32 33 21 24 37 60 42 55 82 86 73 66 27 40 45
84 72 82 88 100 99 99 98 92 100 100 99 100 97 95 69 45 33 34 39 29 17 22 15 14 11 21 32 37 37 35 27 42 28 29 46 52 85 78 72 84 71 48 42 48
80 83 78 86 86 93 100 99 100 100 100 95 76 76 95 52 35 33 34 30 14 14 16 11 10 11 22 31 35 30 37 39 83 30 26 29 58 99 71 59 64 73 57 41 52
90 91 82 80 85 99 100 100 100 98 80 95 100 84 48 35 33 33 26 15 10 13 10 10 9 12 19 21 32 28 38 36 56 45 28 23 35 65 78 57 50 63 71 46 44
80 82 82 87 100 100 100 100 99 94 90 100 68 54 49 33 35 24 14 11 10 10 9 9 10 13 20 18 24 22 28 32 44 54 34 20 24 36 73 71 49 51 71 48 55
69 82 86 96 98 100 100 90 100 95 96 79 75 40 42 38 25 12 11 10 10 10 10 10 11 13 16 18 20 19 21 38 50 56 42 28 25 19 44 58 48 47 59 57 54
70 79 84 95 96 97 82 100 94 76 72 79 76 40 32 30 17 10 10 9 9 9 8 10 12 11 14 17 20 18 18 55 50 45 44 39 31 16 29 49 57 48 49 51 40
68 79 78 83 92 95 80 85 64 94 89 92 50 30 38 32 13 9 8 8 7 7 7 9 11 11 11 13 15 15 19 25 36 38 30 41 29 18 20 28 54 70 51 46 48
72 78 84 75 87 81 70 70 90 85 82 69 35 34 42 23 9 8 6 5 4 4 5 7 7 9 10 11 12 19 15 15 25 25 35 39 24 26 19 25 41 49 62 52 52
77 84 79 74 77 61 68 74 86 95 70 60 38 46 49 14 8 6 4 3 3 3 3 4 5 7 9 8 9 12 14 12 15 21 20 38 21 48 23 20 44 67 70 63 61
82 78 68 76 59 62 73 56 73 65 66 50 53 49 42 12 8 5 3 2 3 3 3 3 3 4 6 7 7 7 9 11 10 15 14 40 25 38 36 24 29 63 91 79 68
77 69 69 75 61 60 77 64 61 80 93 62 53 59 32 12 7 4 3 3 3 4 5 4 4 3 3 5 7 6 8 9 9 9 15 28 16 24 69 32 27 51 86 80 92
76 59 60 63 56 62 62 58 84 92 93 67 62 58 30 9 5 3 3 3 4 4 5 6 7 4 3 2 5 8 7 14 11 11 12 16 14 45 50 35 25 38 74 87 85
63 56 60 58 64 69 74 74 92 96 84 70 64 56 36 9 5 3 4 4 4 5 5 5 7 5 2 2 2 5 6 8 9 11 10 14 19 32 36 45 27 31 53 91 90
56 56 52 57 67 79 78 87 100 100 100 70 59 55 37 8 4 4 5 5 5 5 4 5 6 8 4 2 2 3 5 5 8 9 11 15 19 35 44 50 39 23 38 96 100
52 52 53 58 78 71 73 100 100 100 96 76 69 52 31 8 4 4 6 5 5 5 5 5 6 6 4 2 2 3 5 5 6 7 10 12 20 32 37 43 44 30 29 55 100
51 51 52 76 73 63 71 100 100 99 100 70 64 53 25 8 3 4 6 6 5 5 5 6 6 6 4 3 2 2 3 4 4 7 8 8 26 23 23 27 42 42 28 38 100
60 44 54 77 81 73 82 100 100 100 100 82 60 50 20 6 3 4 6 6 5 5 5 6 5 6 4 3 2 2 3 3 4 6 8 13 15 15 16 20 34 52 29 33 94
56 52 58 76 80 83 93 100 100 100 97 74 58 46 15 7 4 5 6 6 6 5 5 5 5 6 3 2 2 2 2 3 4 8 11 14 14 11 14 22 33 39 38 34 48
59 54 56 75 83 96 97 100 100 100 92 78 43 30 10 6 4 6 7 6 6 5 5 5 5 6 3 2 3 2 3 3 6 11 13 16 14 12 12 19 39 41 39 32 31
58 53 54 80 89 97 100 100 100 100 100 80 47 22 8 6 4 6 7 6 6 6 5 5 5 6 3 2 3 3 3 4 7 12 16 16 15 12 12 17 36 38 34 29 31
Wind_Speed
32 33 37 36 40 43 46 49 48 47 51 55 62 65 66 68 70 71 71 73 71 74 69 68 59 59 70 74 84 95 95 79 75 74 77 88 81 77 72 68 63 57 56 61 64
32 37 40 42 44 46 50 54 54 52 53 57 64 66 71 77 80 82 81 80 78 76 73 72 67 64 62 72 80 89 95 86 87 86 84 89 87 81 75 71 67 61 54 53 53
36 41 45 44 43 47 54 62 66 66 66 67 69 73 79 82 86 85 84 86 86 86 82 75 71 69 61 71 81 84 86 97 95 94 91 90 89 86 78 76 72 68 61 55 53
38 42 44 44 45 51 60 65 67 71 70 71 75 83 85 89 95 91 90 91 94 93 85 79 76 70 66 67 81 85 83 98 102 101 97 92 95 87 82 79 77 74 65 58 55
42 44 48 47 50 55 57 60 68 74 80 81 86 86 92 101 101 103 99 98 98 93 88 83 76 70 66 68 78 84 84 94 106 106 100 100 95 92 84 83 81 79 71 63 59
45 48 51 51 55 57 61 65 71 77 84 86 89 95 98 104 102 106 108 108 99 97 90 79 69 66 63 66 76 82 90 93 104 109 107 104 98 98 87 84 84 80 74 67 65
46 50 51 55 59 62 64 73 75 79 84 90 95 100 98 107 110 114 117 113 105 93 82 70 66 62 61 67 75 80 91 94 97 110 110 111 106 93 91 91 87 83 78 74 72
51 51 57 61 64 67 71 77 81 80 85 91 98 102 103 111 115 120 116 109 104 85 69 64 64 60 60 67 73 80 88 93 90 102 113 122 107 102 97 99 92 87 84 80 76
52 57 60 64 69 74 77 80 81 86 92 94 104 111 110 112 116 118 111 105 90 73 61 59 57 57 61 66 73 78 81 88 89 100 118 130 112 113 107 105 101 94 89 85 80
58 60 64 70 74 78 80 83 85 87 96 103 109 113 115 116 117 113 106 90 77 64 55 54 52 53 60 64 68 78 84 91 92 104 114 127 118 118 113 109 105 101 93 88 84
61 64 68 75 76 81 80 90 88 94 100 110 116 118 119 118 115 111 91 78 70 61 56 48 46 53 67 69 75 83 89 92 95 105 116 121 125 125 121 117 110 105 96 92 88
63 68 71 75 78 82 87 92 96 104 107 112 120 115 117 119 109 96 84 75 71 63 55 47 49 60 65 68 73 81 85 86 91 104 115 116 123 132 129 120 112 108 102 95 93
67 70 71 77 79 82 87 94 102 108 112 115 121 121 119 116 103 88 82 75 67 62 57 48 55 59 63 68 73 81 85 85 96 107 115 116 118 132 132 125 118 111 104 99 95
69 73 76 80 81 85 90 99 103 118 120 122 124 124 118 114 96 87 79 72 65 60 57 55 57 59 63 68 76 79 83 91 101 109 112 120 117 131 134 131 125 114 105 96 94
73 74 80 82 85 90 98 103 113 114 127 129 129 127 126 111 93 87 77 68 61 57 54 60 59 60 63 74 77 76 88 92 99 106 114 119 118 121 133 135 125 114 105 97 93
75 73 79 86 88 94 99 106 111 122 126 128 130 130 126 110 95 85 73 65 58 53 52 55 59 61 67 73 75 78 87 89 97 105 114 112 117 115 126 130 125 118 112 105 99
78 80 84 86 92 97 105 110 118 126 133 133 135 132 123 107 95 83 71 61 53 51 52 49 58 60 66 70 71 75 84 88 95 103 103 109 123 110 118 126 127 122 115 110 104
79 80 87 90 96 100 108 115 120 130 132 137 135 132 128 105 94 81 70 62 52 47 50 48 50 56 61 67 71 72 84 85 85 92 92 114 123 108 111 123 130 132 124 120 112
81 81 88 90 96 102 110 116 122 131 134 140 136 131 124 99 89 78 68 58 52 48 45 43 46 55 58 57 62 72 73 77 86 89 95 106 112 109 116 122 130 133 129 124 115
80 83 86 91 98 102 110 120 129 134 138 142 139 130 122 99 87 75 66 56 52 48 45 41 43 57 57 52 59 72 77 82 84 87 87 93 101 105 113 118 125 132 130 124 118
81 85 88 94 99 107 115 125 129 138 141 141 138 131 121 100 84 72 65 57 51 50 43 40 40 53 51 47 48 57 75 77 83 84 85 85 95 88 110 116 125 133 136 131 125
80 87 90 95 102 109 116 123 132 137 142 146 146 132 121 98 83 71 64 59 50 46 41 37 38 48 47 42 47 57 71 75 80 82 87 92 83 91 103 114 120 127 136 132 130
80 86 89 99 104 111 117 124 132 139 145 146 147 133 118 98 81 67 59 55 51 46 39 35 36 45 43 41 47 53 65 70 68 77 86 84 75 95 102 107 114 123 135 137 132
86 88 92 100 107 113 117 123 133 139 147 147 145 134 112 98 84 69 60 53 48 44 35 33 38 39 39 39 46 49 58 64 63 72 76 61 79 90 92 98 109 119 133 140 136
87 92 97 104 111 115 123 128 136 144 148 144 140 128 110 96 81 69 62 54 48 43 35 32 38 36 37 36 42 45 52 58 55 58 49 63 84 89 83 91 108 119 126 138 140
92 98 100 105 110 118 126 127 137 143 147 143 136 122 105 93 77 67 62 53 46 41 36 33 36 34 36 31 36 43 49 53 49 55 62 74 80 78 82 91 102 114 127 136 144
94 98 102 109 113 119 124 131 140 143 143 143 136 122 101 91 75 64 59 55 43 40 34 34 33 31 35 28 34 43 44 49 53 58 66 70 72 78 80 85 101 111 120 130 138
Wind_Direction
333 330 329 326 328 332 334 336 333 332 334 334 333 330 323 323 320 314 307 307 304 299 295 290 281 267 253 247 241 236 231 227 228 227 228 232 229 229 227 227 228 225 229 227 230
326 324 324 327 330 332 334 334 333 332 333 330 330 327 325 324 321 316 311 306 304 302 296 292 284 273 262 248 243 238 232 226 228 227 227 232 226 227 227 226 227 226 225 229 227
328 326 328 333 329 329 332 332 333 332 329 330 329 327 324 320 316 312 309 307 307 305 301 293 284 275 263 248 243 238 230 225 226 227 226 229 227 225 224 226 226 225 223 227 229
333 333 332 329 328 326 330 331 332 331 329 328 325 326 325 320 314 312 308 306 305 306 301 293 285 275 262 250 240 237 231 225 224 225 227 226 225 222 224 226 226 226 222 224 228
333 333 330 327 324 324 327 328 327 327 328 328 327 328 323 319 317 314 311 308 307 303 298 294 281 270 262 250 238 236 230 226 222 223 224 224 223 221 221 225 225 227 222 222 226
326 327 326 323 324 323 324 325 326 325 325 323 324 323 322 315 313 309 310 310 309 302 296 290 276 267 256 246 238 230 226 226 222 222 222 222 222 221 220 223 227 228 224 221 224
324 324 322 321 324 323 324 326 325 323 324 323 323 324 321 316 313 312 310 308 308 304 294 282 271 266 251 241 236 231 227 225 222 220 220 221 220 220 223 223 225 225 224 222 223
320 319 319 322 322 325 324 327 328 326 325 324 324 325 324 317 315 312 310 308 307 300 289 277 270 263 248 239 234 231 227 226 221 221 221 222 215 220 222 223 224 224 223 222 224
318 317 320 320 320 322 324 328 327 328 326 326 327 325 323 316 314 312 310 309 304 297 284 275 268 257 243 236 233 229 226 222 220 221 220 222 214 220 219 220 222 222 222 222 222
321 316 316 319 323 324 327 329 325 327 329 331 327 325 319 318 316 315 312 308 304 294 282 273 264 250 243 236 231 227 222 219 216 219 219 222 214 220 219 220 220 219 221 220 222
319 320 321 322 325 327 330 327 325 326 330 329 327 325 325 321 318 316 310 306 302 294 283 272 260 245 238 233 228 222 221 217 216 218 219 219 217 217 219 218 218 219 218 218 221
320 322 323 324 328 329 329 329 328 326 331 331 331 326 325 323 321 316 310 303 299 293 285 272 254 243 238 235 228 224 222 217 218 219 222 218 217 215 218 217 217 218 216 216 218
321 323 326 326 328 330 330 329 329 326 329 330 329 327 324 323 322 314 309 303 295 288 282 270 250 245 239 234 228 224 221 218 216 217 220 219 216 213 215 217 215 216 216 216 217
321 325 327 326 327 327 326 329 333 330 332 333 330 328 327 327 322 317 312 302 292 284 276 265 254 243 239 234 231 226 223 218 217 219 217 219 213 215 214 216 215 214 215 215 217
321 325 325 326 328 328 327 331 334 333 332 334 332 331 329 330 325 319 314 304 294 284 273 263 256 246 237 234 232 224 227 220 218 219 218 219 216 215 214 215 215 213 213 214 215
322 324 324 326 328 328 331 332 334 333 333 333 332 334 332 332 326 322 315 307 297 285 274 264 255 248 240 238 232 227 227 224 220 218 218 217 220 212 214 214 214 214 212 212 214
322 324 325 328 329 330 333 331 334 335 335 335 334 335 335 331 327 323 317 310 300 292 279 266 259 251 243 239 236 231 229 226 221 221 218 216 223 204 215 212 214 213 213 214 214
322 325 326 326 328 331 333 333 336 337 339 337 336 337 337 332 328 324 318 312 307 294 282 272 260 253 247 240 236 232 231 226 226 223 214 218 222 205 215 212 212 211 211 213 213
322 324 323 325 327 330 334 336 337 338 339 340 340 337 338 333 329 324 317 314 308 297 282 272 262 258 248 243 231 233 232 228 225 221 218 220 220 213 211 214 210 211 210 212 214
321 323 322 326 331 335 336 338 339 339 340 340 340 337 338 334 330 323 318 315 308 300 289 277 260 259 256 244 236 225 225 220 222 222 219 218 219 214 212 214 211 211 210 212 213
322 322 326 333 334 335 337 340 340 340 342 340 341 340 339 334 330 323 318 315 309 303 295 284 267 261 256 248 240 228 229 222 220 216 218 214 215 208 214 212 213 210 209 209 212
321 324 329 333 334 335 339 340 340 343 341 341 341 341 340 336 331 324 320 316 311 303 298 288 272 261 258 247 236 225 225 224 220 215 216 213 205 209 213 212 213 211 210 209 209
323 328 331 333 334 336 340 341 343 343 342 340 341 341 340 336 331 325 321 315 312 308 303 291 274 265 260 247 237 228 224 223 219 218 218 212 203 210 207 211 209 211 209 209 210
327 329 332 333 336 338 339 339 341 342 342 340 340 341 339 336 333 328 322 319 316 311 300 287 277 268 260 245 237 229 226 224 217 217 219 207 209 214 209 210 209 211 209 209 208
326 331 334 335 339 339 338 340 340 341 342 340 339 342 339 337 333 328 323 324 319 312 296 280 274 268 260 245 237 228 223 223 215 212 204 205 212 212 208 207 210 211 210 210 207
325 330 334 333 337 340 340 340 340 343 341 340 340 341 340 337 333 327 323 322 319 313 295 281 276 270 260 244 233 228 218 218 206 200 197 204 212 212 207 206 209 211 210 208 208
324 329 331 333 337 337 340 339 341 341 342 339 341 342 340 337 331 328 323 320 321 313 299 281 276 269 261 240 225 225 212 208 202 195 199 207 209 211 208 204 210 212 212 210 211